Date,TemperatureHighF,TemperatureAvgF,TemperatureLowF,DewpointHighF,DewpointAvgF,DewpointLowF,HumidityHigh,HumidityAvg,HumidityLow,PressureMaxIn,PressureMinIn,WindSpeedMaxMPH,WindSpeedAvgMPH,GustSpeedMaxMPH,PrecipitationSumIn
2013-1-1,26.8,21.8,13.4,24.0,16.4,8.0,92,80,66,30.40,30.30,31,12,37,0.00
2013-1-2,29.6,21.4,10.0,21.0,11.7,2.0,84,66,44,30.54,30.32,32,10,36,0.00
2013-1-3,36.0,20.4,7.2,19.0,7.6,-1.0,75,58,36,30.53,30.38,8,3,10,0.00
2013-1-4,42.5,23.3,8.0,23.0,11.3,2.0,77,61,41,30.39,30.27,9,3,10,0.00
2013-1-5,37.7,22.9,13.3,22.0,12.6,6.0,77,65,46,30.45,30.34,9,4,14,0.00
2013-1-6,41.0,24.7,6.3,26.0,13.0,0.0,82,62,40,30.34,30.04,8,2,13,0.00
2013-1-7,37.8,25.5,14.9,23.0,16.8,8.0,84,70,51,30.15,29.86,9,3,10,0.00
2013-1-8,45.2,31.0,19.3,25.0,18.8,13.0,79,62,30,30.21,29.87,19,5,24,0.00
2013-1-9,55.6,40.2,18.7,32.0,22.2,10.0,77,51,16,30.21,29.81,22,8,30,0.00
2013-1-10,42.4,39.1,35.0,22.0,20.2,19.0,55,47,39,29.80,29.67,15,6,17,0.00
2013-1-11,9.7,6.9,4.3,6.0,2.2,-1.0,87,81,76,30.25,29.65,38,24,41,0.00
2013-1-12,11.9,6.3,1.5,4.0,1.3,-3.0,88,80,69,30.47,30.25,29,6,31,0.00
2013-1-13,16.8,5.3,-4.4,5.0,-0.8,-10.0,87,76,57,30.52,30.44,7,3,10,0.00
2013-1-14,14.8,6.1,-3.6,5.0,-3.1,-10.0,75,66,53,30.54,30.38,7,3,10,0.00
2013-1-15,39.4,28.2,13.6,30.0,21.2,6.0,91,75,56,30.39,30.24,13,4,13,0.01
2013-1-16,45.5,30.9,17.9,27.0,20.1,14.0,87,66,37,30.47,30.21,15,4,17,0.00
2013-1-17,44.7,29.4,18.0,28.0,18.9,12.0,80,65,44,30.52,30.23,9,3,13,0.00
2013-1-18,55.3,40.3,28.3,29.0,19.8,13.0,66,45,19,30.22,29.98,13,4,15,0.00
2013-1-19,44.5,33.5,23.8,24.0,19.5,16.0,82,58,37,30.25,30.07,12,4,14,0.00
2013-1-20,34.4,23.3,18.6,20.0,17.1,13.0,87,78,49,30.52,30.18,37,9,43,0.00
2013-1-21,43.7,27.1,15.4,22.0,18.0,13.0,93,71,38,30.46,30.17,17,5,17,0.00
2013-1-22,48.0,32.4,21.5,25.0,15.9,11.0,73,53,25,30.25,30.16,7,4,10,0.00
2013-1-23,38.8,29.3,23.1,22.0,17.8,12.0,85,63,40,30.27,30.08,6,2,7,0.00
2013-1-24,58.8,38.6,22.5,27.0,21.1,15.0,85,53,19,30.20,29.95,35,3,35,0.00
2013-1-25,50.0,32.5,21.2,33.0,22.4,17.0,87,69,31,30.21,30.04,8,3,11,0.00
2013-1-26,53.3,37.5,24.4,32.0,24.5,18.0,80,62,35,30.03,29.75,12,3,15,0.00
2013-1-27,37.0,32.0,27.4,32.0,28.5,24.0,96,87,71,29.89,29.70,19,6,22,0.00
2013-1-28,27.5,22.1,9.2,26.0,19.0,6.0,95,88,76,29.95,29.88,14,5,17,0.00
2013-1-29,26.9,12.2,-2.0,20.0,6.1,-5.0,88,77,50,30.39,29.93,31,10,40,0.00
2013-1-30,33.3,19.6,4.9,27.0,15.6,2.0,92,84,71,30.30,30.08,22,8,27,0.00
2013-1-31,32.0,20.1,5.6,25.0,15.1,3.0,91,81,70,30.39,30.16,21,7,21,0.00